[[{"header":{"parameterUnit":"m.s-1","parameterCategory":1,"la1":30.2991,"la2":30.254,"lo1":-89.0895,"lo2":-89.0444,"dy":0.0017,"dx":0.0017,"nx":28,"ny":28,"refTime":"2025-09-07T03:00:00:Z","depth":0,"parameterNumber":2,"parameterNumberName":"U-component_of_WINDS"},"data":[0,0,0,0,0,0,0,0,0,0,0,0,0,0,0,0,0,0,0,0,0,0,0,0,0,0,0,0,0,0,0,0,0,0,0,0,0,0,0,0,0,0,0,0,0,0,0,0,0,0,0,0,0,0,0,0,0,0,-0.5758,-0.5758,0,-0.576,-0.576,-0.576,-0.5745,-0.5745,-0.5745,-0.5744,-0.5747,-0.5747,-0.5747,0,0,0,0,0,0,0,0,0,0,0,0,0,-0.5742,-0.5743,-0.5758,-0.5758,-0.5758,-0.576,-0.576,-0.576,-0.5746,-0.5745,-0.5745,-0.5744,-0.5746,-0.5747,-0.5748,0,0,0,0,0,0,0,0,0,0,0,0,0,-0.5747,-0.5743,-0.5758,-0.5751,-0.5751,-0.576,-0.576,-0.576,-0.5746,-0.5745,-0.5744,-0.5744,-0.5746,-0.5747,-0.5748,-0.5764,0,0,-0.575,-0.575,0,0,0,0,0,0,0,0,-0.5747,-0.5748,-0.5752,-0.5752,-0.5751,-0.5752,-0.5755,-0.5761,-0.5746,-0.5748,-0.5744,-0.5744,-0.5749,-0.5749,-0.5751,-0.5764,-0.5764,-0.575,-0.575,-0.575,-0.575,0,0,0,0,0,0,0,-0.5747,-0.5748,-0.5759,-0.5752,-0.5751,-0.5748,-0.5748,-0.5756,-0.5752,-0.5747,-0.5746,-0.5747,-0.5748,-0.575,-0.5751,-0.5764,-0.575,-0.575,-0.5751,-0.5751,-0.5789,-0.5789,0,0,0,0,0,0,-0.5747,-0.5747,-0.5759,-0.5759,-0.5747,-0.5749,-0.5749,-0.5752,-0.5751,-0.5751,-0.5747,-0.5746,-0.5749,-0.575,-0.5751,-0.5769,-0.575,-0.5751,-0.5751,-0.5788,-0.5789,-0.579,0,0,0,0,0,0,-0.5747,-0.5748,-0.5759,-0.5753,-0.5754,-0.575,-0.5753,-0.5752,-0.5754,-0.5751,-0.575,-0.575,-0.5749,-0.575,-0.576,-0.5769,-0.5751,-0.5752,-0.5788,-0.5788,-0.5789,-0.5806,0,0,0,0,0,0,-0.5746,-0.5748,-0.5754,-0.5753,-0.5754,-0.5768,-0.5754,-0.5753,-0.5755,-0.5754,-0.5754,-0.5753,-0.5749,-0.5759,-0.5761,-0.577,-0.5752,-0.5787,-0.5788,-0.5789,-0.5805,-0.5808,-0.581,0,0,0,0,0,-0.5746,-0.5759,-0.5755,-0.5756,-0.5762,-0.5769,-0.5769,-0.5764,-0.5756,-0.5762,-0.576,-0.5753,-0.5768,-0.5761,-0.5762,-0.5771,-0.5786,-0.5788,-0.5789,-0.5804,-0.5807,-0.581,0,0,0,0,0,0,-0.5763,-0.5759,-0.5754,-0.5767,-0.5768,-0.5766,-0.5774,-0.5768,-0.5771,-0.577,-0.5763,-0.5763,-0.5774,-0.5774,-0.5766,-0.5786,-0.5776,-0.5777,-0.5786,-0.579,-0.5792,-0.5792,-0.5753,0,0,0,0,0,-0.5768,-0.5774,-0.577,-0.5782,-0.5783,-0.5778,-0.5781,-0.5777,-0.5777,-0.5778,-0.5777,-0.5778,-0.5782,-0.5786,-0.579,-0.5804,-0.5804,-0.5811,-0.5814,-0.5816,-0.5818,-0.5825,-0.5828,-0.5794,-0.5794,-0.5794,0,0,-0.5779,-0.5778,-0.5782,-0.5786,-0.5786,-0.5792,-0.5779,-0.5786,-0.5791,-0.5779,-0.5789,-0.5788,-0.5788,-0.5801,-0.5806,-0.5801,-0.5827,-0.5818,-0.582,-0.582,-0.5827,-0.583,-0.5833,-0.5795,-0.5795,-0.5795,0,0,-0.5802,-0.5802,-0.5812,-0.5812,-0.5812,-0.5808,-0.5811,-0.5809,-0.5808,-0.5817,-0.5809,-0.5814,-0.5822,-0.5823,-0.5824,-0.5846,-0.584,-0.5848,-0.5861,-0.5868,-0.5871,-0.5873,-0.5881,-0.5884,-0.5849,-0.5849,-0.5849,0,-0.5816,-0.5825,-0.5817,-0.5825,-0.5827,-0.5816,-0.5826,-0.5826,-0.5828,-0.583,-0.5823,-0.5833,-0.5833,-0.5845,-0.585,-0.5852,-0.5854,-0.5848,-0.5871,-0.5873,-0.5875,-0.5883,-0.5886,-0.585,-0.585,-0.585,-0.585,0,-0.5841,-0.5848,-0.5855,-0.5857,-0.5859,-0.5868,-0.5862,-0.5866,-0.586,-0.5857,-0.5867,-0.5866,-0.5869,-0.5872,-0.5867,-0.5883,-0.588,-0.5872,-0.5862,-0.588,-0.5887,-0.5889,-0.5852,-0.5851,-0.5851,-0.5851,0,0,-0.5877,-0.5873,-0.5876,-0.5876,-0.5875,-0.5879,-0.5887,-0.589,-0.5893,-0.5894,-0.5901,-0.5907,-0.59,-0.5902,-0.5897,-0.5903,-0.592,-0.5895,-0.5895,-0.59,-0.5938,-0.5943,-0.5947,-0.5916,-0.5916,-0.5916,-0.5938,0,-0.5899,-0.5913,-0.5906,-0.592,-0.5925,-0.5914,-0.5921,-0.5921,-0.5918,-0.5922,-0.5919,-0.5923,-0.5914,-0.5915,-0.592,-0.5917,-0.5928,-0.5915,-0.5922,-0.5922,-0.5922,-0.595,-0.5957,-0.5977,-0.594,-0.5941,-0.5941,0,-0.5928,-0.593,-0.5944,-0.5941,-0.5943,-0.5949,-0.5951,-0.5955,-0.5954,-0.5952,-0.5953,-0.5946,-0.5953,-0.5942,-0.5951,-0.5943,-0.5945,-0.5944,-0.5944,-0.5945,-0.5933,-0.5953,-0.5983,-0.5986,-0.5945,-0.5945,-0.5944,0,-0.5953,-0.5958,-0.5968,-0.5968,-0.5965,-0.5969,-0.5968,-0.5966,-0.5968,-0.597,-0.5971,-0.5973,-0.5975,-0.5977,-0.5971,-0.5963,-0.5981,-0.5969,-0.5979,-0.5979,-0.5984,-0.5984,-0.6016,-0.5985,-0.5984,-0.5984,-0.5984,0,-0.5979,-0.5988,-0.5978,-0.5984,-0.5994,-0.5986,-0.5996,-0.5993,-0.5992,-0.5997,-0.5987,-0.5992,-0.5983,-0.5987,-0.5983,-0.5991,-0.5992,-0.599,-0.5989,-0.5991,-0.5991,-0.5993,-0.5992,-0.5985,-0.5985,-0.5985,-0.5985,0,-0.6009,-0.6002,-0.6012,-0.6007,-0.6006,-0.6014,-0.601,-0.6015,-0.6011,-0.6017,-0.6018,-0.6012,-0.6016,-0.6009,-0.6013,-0.6009,-0.6021,-0.6018,-0.6022,-0.6021,-0.6031,-0.603,-0.6066,-0.607,-0.6035,-0.6036,-0.6036,0,-0.6026,-0.6033,-0.6029,-0.6031,-0.6031,-0.6035,-0.6036,-0.6028,-0.603,-0.6029,-0.6034,-0.6037,-0.6039,-0.6046,-0.6042,-0.6044,-0.6041,-0.6053,-0.6041,-0.6043,-0.6041,-0.6041,-0.6042,-0.6055,-0.6056,-0.6056,-0.6057,0,-0.6059,-0.6055,-0.6057,-0.6059,-0.6061,-0.6062,-0.6062,-0.6064,-0.6055,-0.6058,-0.6062,-0.6063,-0.6066,-0.6069,-0.607,-0.6069,-0.6061,-0.606,-0.6062,-0.6066,-0.6068,-0.6067,-0.6029,-0.606,-0.6059,-0.6059,-0.6059,-0.6059,-0.6083,-0.6088,-0.6086,-0.6089,-0.6088,-0.6088,-0.6092,-0.6088,-0.6091,-0.6093,-0.6087,-0.6092,-0.609,-0.609,-0.609,-0.6093,-0.6088,-0.6091,-0.6092,-0.6094,-0.6095,-0.6066,-0.6093,-0.6093,-0.6093,-0.6093,-0.6093,0,-0.6115,-0.6112,-0.6115,-0.6115,-0.6118,-0.6109,-0.6109,-0.6111,-0.6115,-0.6114,-0.6116,-0.612,-0.6122,-0.6118,-0.6119,-0.6123,-0.612,-0.6124,-0.6124,-0.6124,-0.61,-0.6098,-0.6127,-0.6127,-0.6127,-0.6127,-0.6127,-0.6127,-0.6132,-0.614,-0.6136,-0.6143,-0.6141,-0.6145,-0.6146,-0.6145,-0.6144,-0.6149,-0.6151,-0.6147,-0.6144,-0.6146,-0.6148,-0.6146,-0.6147,-0.6153,-0.615,-0.6129,-0.6125,-0.6122,-0.612,-0.6153,-0.6153,-0.6174,-0.6174,-0.6174]},{"header":{"parameterUnit":"m.s-1","parameterCategory":1,"la1":30.2991,"la2":30.254,"lo1":-89.0895,"lo2":-89.0444,"dy":0.0017,"dx":0.0017,"nx":28,"ny":28,"refTime":"2025-09-07T03:00:00:Z","depth":0,"parameterNumber":3,"parameterNumberName":"V-component_of_WINDS"},"data":[0,0,0,0,0,0,0,0,0,0,0,0,0,0,0,0,0,0,0,0,0,0,0,0,0,0,0,0,0,0,0,0,0,0,0,0,0,0,0,0,0,0,0,0,0,0,0,0,0,0,0,0,0,0,0,0,0,0,-4.6887,-4.6887,0,-4.6915,-4.6915,-4.6915,-4.6878,-4.6877,-4.6875,-4.6874,-4.6898,-4.69,-4.6902,0,0,0,0,0,0,0,0,0,0,0,0,0,-4.6799,-4.6801,-4.6887,-4.6887,-4.6888,-4.6915,-4.6915,-4.6915,-4.6878,-4.6877,-4.6875,-4.6874,-4.6898,-4.69,-4.6902,0,0,0,0,0,0,0,0,0,0,0,0,0,-4.6833,-4.6801,-4.6887,-4.6873,-4.6872,-4.6914,-4.6915,-4.6915,-4.6879,-4.6877,-4.6875,-4.6873,-4.6897,-4.69,-4.6903,-4.6959,0,0,-4.6911,-4.6912,0,0,0,0,0,0,0,0,-4.6831,-4.6836,-4.6874,-4.6874,-4.6873,-4.6891,-4.6893,-4.693,-4.6879,-4.6876,-4.6874,-4.6872,-4.6897,-4.69,-4.6909,-4.6961,-4.6962,-4.6911,-4.6913,-4.6914,-4.6915,0,0,0,0,0,0,0,-4.6829,-4.6835,-4.6898,-4.6875,-4.6874,-4.6864,-4.6866,-4.69,-4.6897,-4.6876,-4.6873,-4.6877,-4.6896,-4.6907,-4.691,-4.6962,-4.6911,-4.6914,-4.6916,-4.6917,-4.7063,-4.7065,0,0,0,0,0,0,-4.6829,-4.6833,-4.6897,-4.6899,-4.6847,-4.6867,-4.687,-4.6887,-4.6897,-4.6896,-4.6879,-4.6876,-4.6903,-4.6906,-4.691,-4.6979,-4.6914,-4.6917,-4.6918,-4.7061,-4.7064,-4.7066,0,0,0,0,0,0,-4.6827,-4.6835,-4.6896,-4.6865,-4.6872,-4.6871,-4.689,-4.6889,-4.6899,-4.6899,-4.6898,-4.689,-4.6901,-4.6906,-4.6948,-4.6979,-4.6918,-4.6921,-4.7058,-4.7062,-4.7065,-4.7117,0,0,0,0,0,0,-4.6824,-4.6834,-4.6857,-4.6866,-4.6874,-4.6934,-4.6892,-4.6891,-4.6904,-4.69,-4.6909,-4.6909,-4.69,-4.6944,-4.6951,-4.6982,-4.6923,-4.7055,-4.706,-4.7064,-4.7112,-4.7121,-4.7129,0,0,0,0,0,-4.6821,-4.6869,-4.6858,-4.6866,-4.6902,-4.6936,-4.6941,-4.6931,-4.6907,-4.6929,-4.693,-4.6909,-4.6975,-4.6949,-4.6956,-4.6989,-4.7053,-4.7059,-4.7063,-4.7108,-4.712,-4.7129,0,0,0,0,0,0,-4.6861,-4.687,-4.6858,-4.691,-4.6923,-4.693,-4.6958,-4.6943,-4.6962,-4.6957,-4.6942,-4.6945,-4.699,-4.6993,-4.6964,-4.7045,-4.701,-4.7017,-4.7042,-4.7052,-4.7061,-4.7059,-4.6925,0,0,0,0,0,-4.6876,-4.6904,-4.691,-4.6955,-4.6962,-4.6959,-4.6973,-4.6965,-4.6977,-4.6982,-4.6985,-4.6997,-4.7021,-4.7036,-4.7058,-4.7112,-4.7114,-4.7138,-4.7147,-4.7154,-4.716,-4.719,-4.7201,-4.7082,-4.7082,-4.7082,0,0,-4.6906,-4.6915,-4.6933,-4.6963,-4.6972,-4.7001,-4.6964,-4.6995,-4.7017,-4.6986,-4.7027,-4.703,-4.7042,-4.7091,-4.7113,-4.7095,-4.7193,-4.716,-4.7165,-4.7168,-4.7197,-4.7208,-4.7218,-4.7086,-4.7085,-4.7084,0,0,-4.6978,-4.6987,-4.7027,-4.7037,-4.7052,-4.705,-4.706,-4.707,-4.7071,-4.7112,-4.7091,-4.7115,-4.7155,-4.7165,-4.7176,-4.7253,-4.7235,-4.726,-4.7305,-4.7335,-4.7344,-4.7353,-4.7382,-4.7392,-4.7266,-4.7266,-4.7266,0,-4.7014,-4.7058,-4.7048,-4.7083,-4.7097,-4.7073,-4.7113,-4.7123,-4.7143,-4.7153,-4.7134,-4.7185,-4.7191,-4.7243,-4.7263,-4.7271,-4.7282,-4.7259,-4.7344,-4.7352,-4.736,-4.7387,-4.7398,-4.7269,-4.7269,-4.7269,-4.7268,0,-4.7103,-4.7134,-4.7164,-4.7187,-4.7204,-4.7241,-4.7236,-4.7255,-4.7245,-4.7244,-4.7287,-4.7294,-4.7317,-4.7328,-4.7318,-4.7379,-4.7368,-4.7346,-4.7311,-4.7374,-4.74,-4.741,-4.7274,-4.7273,-4.7272,-4.7271,0,0,-4.7199,-4.7218,-4.723,-4.7241,-4.7257,-4.728,-4.7315,-4.734,-4.7357,-4.7372,-4.7402,-4.7438,-4.7418,-4.743,-4.7421,-4.7447,-4.751,-4.7422,-4.7422,-4.7439,-4.7579,-4.7597,-4.7609,-4.7497,-4.7499,-4.7501,-4.7579,0,-4.7272,-4.7337,-4.733,-4.739,-4.742,-4.7398,-4.7429,-4.7441,-4.7442,-4.7466,-4.7466,-4.7492,-4.7464,-4.7471,-4.7496,-4.7497,-4.7538,-4.7491,-4.7525,-4.7527,-4.7525,-4.7622,-4.7641,-4.7714,-4.7588,-4.759,-4.7591,0,-4.7366,-4.7388,-4.7452,-4.7466,-4.7477,-4.7506,-4.7529,-4.7552,-4.7566,-4.7565,-4.7579,-4.7565,-4.7601,-4.7564,-4.7613,-4.7582,-4.7595,-4.7598,-4.76,-4.7604,-4.7564,-4.763,-4.7737,-4.7748,-4.7607,-4.7605,-4.7604,0,-4.7433,-4.7477,-4.7522,-4.7532,-4.7548,-4.7569,-4.7576,-4.7588,-4.7604,-4.7623,-4.7634,-4.7656,-4.7669,-4.7686,-4.7679,-4.7653,-4.773,-4.7692,-4.773,-4.773,-4.7748,-4.7747,-4.786,-4.7754,-4.7754,-4.7754,-4.7754,0,-4.7516,-4.7557,-4.7553,-4.7581,-4.7626,-4.7617,-4.7661,-4.7665,-4.7677,-4.7704,-4.7685,-4.7711,-4.77,-4.7725,-4.7719,-4.7761,-4.7766,-4.7766,-4.7765,-4.7769,-4.777,-4.7779,-4.7774,-4.7757,-4.7756,-4.7756,-4.7755,0,-4.7598,-4.7597,-4.7645,-4.7657,-4.7661,-4.7694,-4.7704,-4.773,-4.7729,-4.7765,-4.7773,-4.7772,-4.7801,-4.7795,-4.7826,-4.7822,-4.7876,-4.7867,-4.7872,-4.787,-4.7909,-4.7906,-4.8033,-4.8049,-4.7932,-4.7933,-4.7934,0,-4.7652,-4.7684,-4.77,-4.7718,-4.7728,-4.7757,-4.7774,-4.7766,-4.7784,-4.7803,-4.7827,-4.7855,-4.7876,-4.7923,-4.7925,-4.7949,-4.7941,-4.7984,-4.7944,-4.7949,-4.7944,-4.7943,-4.7946,-4.7992,-4.7993,-4.7994,-4.7995,0,-4.7749,-4.7747,-4.7773,-4.78,-4.7822,-4.7841,-4.7859,-4.7875,-4.7868,-4.7889,-4.792,-4.7937,-4.797,-4.7998,-4.8021,-4.8027,-4.801,-4.8008,-4.8018,-4.8024,-4.8026,-4.8027,-4.7895,-4.8005,-4.8004,-4.8003,-4.8003,-4.8002,-4.7819,-4.7847,-4.7864,-4.7894,-4.7907,-4.7925,-4.7951,-4.7955,-4.7981,-4.8009,-4.8001,-4.8036,-4.805,-4.8079,-4.8088,-4.8114,-4.8098,-4.8113,-4.8117,-4.8121,-4.8127,-4.8021,-4.8118,-4.8118,-4.8117,-4.8117,-4.8117,0,-4.7917,-4.7927,-4.7955,-4.7982,-4.8006,-4.799,-4.8009,-4.803,-4.8062,-4.8076,-4.8099,-4.8135,-4.8162,-4.8166,-4.8192,-4.8212,-4.8206,-4.822,-4.8219,-4.8221,-4.8138,-4.8128,-4.8225,-4.8225,-4.8225,-4.8225,-4.8225,-4.8225,-4.797,-4.8017,-4.8018,-4.8071,-4.808,-4.8116,-4.8129,-4.8145,-4.8157,-4.8199,-4.8222,-4.8225,-4.8236,-4.8263,-4.8287,-4.8287,-4.8298,-4.8316,-4.8313,-4.8237,-4.8226,-4.8216,-4.8206,-4.8318,-4.8318,-4.8393,-4.8394,-4.8395]}]]